Johnstown, NE

7:11 AM CST on February 23, 2017 (GMT -0600)
Ainsworth Municipal

Weather History for KANW - October, 2012

Change the Weather History Date:

Thursday, October 4, 2012

  Actual Average Record
Temperature  
Mean Temperature 39 °F -  
Max Temperature 46 °F 65 °F 89 °F (2011)
Min Temperature 32 °F 40 °F 29 °F (2014)
Degree Days  
Heating Degree Days 26    
Moisture  
Dew Point 30 °F    
Average Humidity 68    
Maximum Humidity 90    
Minimum Humidity 48    
Precipitation  
Precipitation 0.00 in - - ()
Sea Level Pressure  
Sea Level Pressure 30.30 in    
Wind  
Wind Speed 17 mph (NW)    
Max Wind Speed 28 mph    
Max Gust Speed 38 mph    
Visibility 10 miles    
Events Thunderstorm    
Averages and records for this station are not official NWS values.
T = Trace of Precipitation, MM = Missing Value Source: NWS Daily Summary

Daily Weather History Graph

Daily Weather History Graph

Search for Another Location

Airport or City:

Trip Planner

Search our weather history database for the weather conditions in past years. The results will help you decide how hot, cold, wet, or windy it might be!

Date:

Astronomy

Oct. 04, 2012 Rise Set
Actual Time 7:41 AM CDT 7:15 PM CDT
Civil Twilight 7:12 AM CDT 7:43 PM CDT
Nautical Twilight 6:40 AM CDT 8:15 PM CDT
Astronomical Twilight 6:07 AM CDT 8:48 PM CDT
Moon 9:46 PM CDT (10/4) 12:05 PM CDT (10/4)
Length of Visible Light 12h 30m
Length of Day
11h 34m
Waning Gibbous, 82% of the Moon is Illuminated
Oct 4
Waning Gibbous
Oct 8
Last Quarter
Oct 15
New
Oct 21
First Quarter
Oct 29
Full

Hourly Weather History & Observations

Time (CDT) Temp. Windchill Dew Point Humidity Pressure Visibility Wind Dir Wind Speed Gust Speed Precip Events Conditions
12:15 AM 40.5 °F 30.7 °F 33.6 °F 77% 30.19 in 10.0 mi NW 21.9 mph 29.9 mph N/A   Scattered Clouds
12:35 AM 40.5 °F 30.0 °F 33.6 °F 77% 30.19 in 10.0 mi NW 25.3 mph 31.1 mph N/A   Mostly Cloudy
12:55 AM 40.1 °F 29.7 °F 33.1 °F 76% 30.20 in 10.0 mi NW 24.2 mph 32.2 mph N/A Thunderstorm Overcast
1:15 AM 40.1 °F 30.7 °F 33.4 °F 77% 30.20 in 10.0 mi NW 19.6 mph 34.5 mph N/A   Overcast
1:35 AM 39.7 °F 30.0 °F 33.3 °F 78% 30.21 in 10.0 mi NW 20.7 mph 26.5 mph N/A   Overcast
1:55 AM 39.6 °F 29.7 °F 32.9 °F 77% 30.22 in 10.0 mi NW 20.7 mph 26.5 mph N/A   Mostly Cloudy
2:15 AM 39.2 °F 29.8 °F 32.7 °F 78% 30.24 in 10.0 mi NW 18.4 mph 27.6 mph N/A   Overcast
2:35 AM 39.2 °F 29.8 °F 32.4 °F 76% 30.25 in 10.0 mi NW 18.4 mph 27.6 mph N/A   Overcast
2:55 AM 39.7 °F 30.3 °F 32.5 °F 75% 30.26 in 10.0 mi NW 19.6 mph 25.3 mph N/A   Overcast
3:15 AM 39.6 °F 31.0 °F 32.5 °F 76% 30.25 in 10.0 mi NW 16.1 mph 23.0 mph N/A   Overcast
3:35 AM 39.4 °F 30.4 °F 32.5 °F 76% 30.24 in 10.0 mi NW 17.3 mph 24.2 mph N/A   Overcast
3:55 AM 39.4 °F 29.5 °F 32.5 °F 76% 30.23 in 10.0 mi NW 20.7 mph 28.8 mph N/A   Overcast
4:15 AM 38.7 °F 28.3 °F 32.2 °F 78% 30.23 in 10.0 mi NW 21.9 mph 26.5 mph N/A   Mostly Cloudy
4:35 AM 38.5 °F 28.9 °F 32.9 °F 80% 30.23 in 10.0 mi NW 18.4 mph 27.6 mph N/A   Overcast
4:55 AM 38.5 °F 28.1 °F 33.6 °F 83% 30.23 in 10.0 mi NW 21.9 mph 27.6 mph N/A   Overcast
5:15 AM 37.4 °F 26.9 °F 32.9 °F 84% 30.24 in 10.0 mi NW 20.7 mph 27.6 mph N/A   Scattered Clouds
5:35 AM 36.9 °F 27.8 °F 32.2 °F 83% 30.25 in 10.0 mi NW 15.0 mph 24.2 mph N/A   Scattered Clouds
5:55 AM 36.5 °F 27.4 °F 32.5 °F 86% 30.26 in 10.0 mi NW 15.0 mph 20.7 mph N/A   Scattered Clouds
6:15 AM 36.9 °F 25.9 °F 32.0 °F 83% 30.26 in 10.0 mi NW 21.9 mph 28.8 mph N/A   Scattered Clouds
6:35 AM 36.0 °F 26.7 °F 32.9 °F 89% 30.26 in 10.0 mi NW 15.0 mph 26.5 mph N/A   Mostly Cloudy
6:55 AM 35.6 °F 26.2 °F 32.9 °F 90% 30.28 in 10.0 mi NW 15.0 mph 20.7 mph N/A   Mostly Cloudy
7:15 AM 36.0 °F 25.6 °F 33.3 °F 90% 30.29 in 10.0 mi NNW 18.4 mph 26.5 mph N/A   Mostly Cloudy
7:35 AM 35.2 °F 25.0 °F 32.0 °F 88% 30.29 in 10.0 mi NW 17.3 mph 21.9 mph N/A   Scattered Clouds
7:55 AM 35.1 °F 25.2 °F 31.3 °F 86% 30.29 in 10.0 mi NW 16.1 mph 21.9 mph N/A   Scattered Clouds
8:15 AM 35.2 °F 24.4 °F 31.1 °F 85% 30.29 in 10.0 mi NW 19.6 mph 25.3 mph N/A   Scattered Clouds
8:35 AM 36.7 °F 26.6 °F 31.5 °F 81% 30.29 in 10.0 mi NW 18.4 mph 21.9 mph N/A   Mostly Cloudy
8:55 AM 37.6 °F 27.7 °F 31.1 °F 77% 30.29 in 10.0 mi NW 18.4 mph 25.3 mph N/A   Scattered Clouds
9:15 AM 38.7 °F 29.8 °F 31.8 °F 76% 30.29 in 10.0 mi NW 16.1 mph 25.3 mph N/A   Clear
9:35 AM 39.4 °F 28.7 °F 31.8 °F 74% 30.30 in 10.0 mi NNW 24.2 mph 29.9 mph N/A   Scattered Clouds
9:55 AM 39.4 °F 28.1 °F 32.0 °F 75% 30.31 in 10.0 mi NNW 27.6 mph 35.7 mph N/A   Mostly Cloudy
10:15 AM 39.2 °F 28.0 °F 31.3 °F 73% 30.31 in 10.0 mi NNW 26.5 mph 33.4 mph N/A   Mostly Cloudy
10:35 AM 40.8 °F 31.1 °F 30.7 °F 67% 30.32 in 10.0 mi NNW 21.9 mph 38.0 mph N/A   Mostly Cloudy
10:55 AM 41.4 °F 31.9 °F 29.3 °F 62% 30.33 in 10.0 mi NNW 21.9 mph 29.9 mph N/A   Mostly Cloudy
11:15 AM 41.4 °F 30.9 °F 29.3 °F 62% 30.33 in 10.0 mi NNW 26.5 mph 32.2 mph N/A   Overcast
11:35 AM 41.0 °F 32.2 °F 28.8 °F 62% 30.34 in 10.0 mi NNW 18.4 mph 26.5 mph N/A   Overcast
11:55 AM 41.0 °F 31.6 °F 28.9 °F 62% 30.35 in 10.0 mi NNW 20.7 mph 28.8 mph N/A   Overcast
12:15 PM 41.2 °F 33.0 °F 28.9 °F 62% 30.36 in 10.0 mi NW 16.1 mph 27.6 mph N/A   Overcast
12:35 PM 41.7 °F 33.1 °F 29.3 °F 61% 30.35 in 10.0 mi NW 18.4 mph 24.2 mph N/A   Overcast
12:55 PM 42.1 °F 34.2 °F 29.5 °F 61% 30.35 in 10.0 mi NW 16.1 mph 24.2 mph N/A   Overcast
1:15 PM 42.8 °F 35.4 °F 30.2 °F 61% 30.34 in 10.0 mi NNW 15.0 mph 25.3 mph N/A   Overcast
1:35 PM 43.7 °F 36.0 °F 29.3 °F 57% 30.33 in 10.0 mi NW 17.3 mph 23.0 mph N/A   Overcast
1:55 PM 45.0 °F 38.2 °F 28.6 °F 53% 30.32 in 10.0 mi NNW 15.0 mph 26.5 mph N/A   Mostly Cloudy
2:15 PM 44.8 °F 36.4 °F 29.1 °F 54% 30.32 in 10.0 mi NNW 21.9 mph 27.6 mph N/A   Overcast
2:35 PM 45.3 °F 38.1 °F 28.8 °F 52% 30.33 in 10.0 mi North 17.3 mph 24.2 mph N/A   Mostly Cloudy
2:55 PM 45.9 °F 39.7 °F 28.0 °F 50% 30.33 in 10.0 mi NNW 13.8 mph 18.4 mph N/A   Mostly Cloudy
3:15 PM 45.3 °F 39.3 °F 27.5 °F 50% 30.32 in 10.0 mi NNW 12.7 mph 19.6 mph N/A   Mostly Cloudy
3:35 PM 44.6 °F 39.2 °F 27.5 °F 51% 30.32 in 10.0 mi NW 10.4 mph - N/A   Scattered Clouds
3:55 PM 45.7 °F 40.6 °F 27.9 °F 50% 30.32 in 10.0 mi NW 10.4 mph 17.3 mph N/A   Mostly Cloudy
4:15 PM 45.5 °F 40.3 °F 27.7 °F 50% 30.31 in 10.0 mi NNW 10.4 mph 17.3 mph N/A   Mostly Cloudy
4:35 PM 45.5 °F 40.3 °F 27.5 °F 49% 30.31 in 10.0 mi NW 10.4 mph - N/A   Overcast
4:55 PM 45.7 °F 40.2 °F 27.9 °F 50% 30.31 in 10.0 mi NW 11.5 mph - N/A   Overcast
5:15 PM 45.1 °F 38.8 °F 27.7 °F 50% 30.31 in 10.0 mi NNW 13.8 mph 17.3 mph N/A   Overcast
5:35 PM 46.4 °F 41.5 °F 28.4 °F 50% 30.31 in 10.0 mi NW 10.4 mph - N/A   Overcast
5:55 PM 45.5 °F 39.6 °F 27.1 °F 49% 30.31 in 10.0 mi NNW 12.7 mph 18.4 mph N/A   Mostly Cloudy
6:15 PM 45.0 °F 39.7 °F 26.4 °F 48% 30.31 in 10.0 mi NNW 10.4 mph 21.9 mph N/A   Mostly Cloudy
6:35 PM 43.7 °F 38.1 °F 26.6 °F 51% 30.31 in 10.0 mi NNW 10.4 mph - N/A   Scattered Clouds
6:55 PM 43.3 °F 37.7 °F 26.4 °F 51% 30.31 in 10.0 mi NNW 10.4 mph - N/A   Clear
7:15 PM 42.3 °F 37.3 °F 26.1 °F 53% 30.31 in 10.0 mi NNW 8.1 mph - N/A   Clear
7:35 PM 41.2 °F 37.3 °F 25.7 °F 54% 30.32 in 10.0 mi NW 5.8 mph - N/A   Clear
7:55 PM 40.5 °F 37.3 °F 26.2 °F 57% 30.32 in 10.0 mi NW 4.6 mph - N/A   Clear
8:15 PM 38.3 °F 34.8 °F 26.1 °F 61% 30.32 in 10.0 mi NW 4.6 mph - N/A   Clear
8:35 PM 39.9 °F 35.8 °F 26.6 °F 59% 30.32 in 10.0 mi NW 5.8 mph - N/A   Clear
8:55 PM 38.5 °F 36.1 °F 26.1 °F 61% 30.32 in 10.0 mi NW 3.5 mph - N/A   Clear
9:15 PM 37.8 °F 35.3 °F 26.2 °F 63% 30.32 in 10.0 mi NW 3.5 mph - N/A   Clear
9:35 PM 34.7 °F 30.6 °F 25.5 °F 69% 30.33 in 10.0 mi WNW 4.6 mph - N/A   Clear
9:55 PM 34.7 °F 30.6 °F 25.5 °F 69% 30.34 in 10.0 mi West 4.6 mph - N/A   Clear
10:15 PM 35.4 °F - 25.7 °F 68% 30.34 in 10.0 mi Calm Calm - N/A   Clear
10:35 PM 34.7 °F - 25.3 °F 69% 30.34 in 10.0 mi Calm Calm - N/A   Clear
10:55 PM 32.4 °F 29.1 °F 25.0 °F 74% 30.35 in 10.0 mi West 3.5 mph - N/A   Clear
11:15 PM 32.2 °F 28.9 °F 24.6 °F 74% 30.35 in 10.0 mi NW 3.5 mph - N/A   Clear
11:35 PM 32.5 °F - 24.6 °F 73% 30.35 in 10.0 mi Calm Calm - N/A   Clear
11:55 PM 32.0 °F 28.7 °F 24.3 °F 73% 30.35 in 10.0 mi NW 3.5 mph - N/A   Clear